Regional Weather Roundup
Issued by NWS

Home | Current Version | Previous Version | Text Only | Print | Product List | Glossary On
Versions: 1 2 3 4 5 6 7 8 9 10 11 12 13 14 15 16 17 18 19 20 21 22 23 24 25 26 27 28 29 30 31 32 33 34 35 36 37 38 39 40 41 42 43 44 45 46 47 48 49 50
000
ASUS43 KDMX 281007
RWRIA

WEATHER ROUNDUP FOR IOWA
NATIONAL WEATHER SERVICE DES MOINES IA
500 AM CDT SAT MAR 28 2015

NOTE: "FAIR" INDICATES FEW OR NO CLOUDS BELOW 12,000 FEET WITH NO
SIGNIFICANT WEATHER AND/OR OBSTRUCTIONS TO VISIBILITY.

* - THESE STATIONS ARE NOT NWS STATIONS...THUS NOT UNDER NWS
QUALITY CONTROL.  THEY ALSO DO NOT REPORT WEATHER SUCH
AS PRECIPITATION OR FOG.

IAZ001>003-012>014-020>022-031>034-043>046-281100-
   NORTHWEST IOWA

CITY           SKY/WX    TMP DP  RH WIND       PRES   REMARKS
CARROLL *      CLOUDY    30  28  93 E8        30.14R WCI  23
CHEROKEE *     CLOUDY    30  28  93 E6        30.13R WCI  24
DENISON *      CLOUDY    30  30 100 SE6       30.11R WCI  24
LE MARS *      CLOUDY    32  28  86 SE9       30.11R WCI  24
ORANGE CITY *  CLOUDY    30  27  86 SE6       30.10S WCI  24
SHELDON *      CLOUDY    30  30 100 SE9       30.10S WCI  22
SIOUX CITY     CLOUDY    33  26  75 SE10      30.10R WCI  25
SPENCER        CLOUDY    29  25  85 SE6       30.12F WCI  23
STORM LAKE *   CLOUDY    28  27  93 SE7       30.12S WCI  21
$$

IAZ055>058-069>071-079>083-090>094-281100-
   SOUTHWEST IOWA

CITY           SKY/WX    TMP DP  RH WIND       PRES   REMARKS
ATLANTIC *     CLOUDY    32  28  86 E6        30.13R WCI  26
AUDUBON *      CLEAR     30  27  86 E5        30.13S WCI  25
CLARINDA *     CLOUDY    34  28  80 SE3       30.14S
COUNCIL BLFS * CLOUDY    32  30  93 SE9       30.11R WCI  24
CRESTON *      CLOUDY    32  23  69 E8        30.13R WCI  25
HARLAN  *      CLOUDY    32  32 100 E5        30.16R WCI  27
LAMONI         CLOUDY    33  19  56 E6        30.14R WCI  28
RED OAK *      CLOUDY    34  28  80 SE6       30.13R WCI  29
SHENANDOAH *   CLOUDY    34  28  80 E7        30.13R WCI  28
$$

IAZ047>049-059>061-072>074-084-281100-
   CENTRAL IOWA

CITY           SKY/WX    TMP DP  RH WIND       PRES   REMARKS
AMES           CLOUDY    27  17  66 E3        30.17R
ANKENY *       CLOUDY    28  18  64 CALM      30.18R
CHARITON *     CLOUDY    30  16  55 SE6       30.16R WCI  24
DES MOINES     CLOUDY    33  12  41 E5        30.17R WCI  29
GRINNELL*      PTCLDY    23  16  74 E6        30.18S WCI  16
KNOXVILLE *    CLOUDY    28  12  50 SE6       30.16S WCI  22
MARSHALLTOWN   CLEAR     20  15  81 E6        30.17S WCI  12
PELLA *        PTCLDY    27  19  74 SE3       30.19S
PERRY *        CLOUDY    32  27  80 CALM      30.16R
$$

IAZ004>006-015-016-023>025-035-036-281100-
   NORTH CENTRAL IOWA

CITY           SKY/WX    TMP DP  RH WIND       PRES   REMARKS
ALGONA *       CLOUDY    28  21  74 SE13      30.15S WCI  18
CLARION *      CLOUDY    27  19  74 SE10      30.16S WCI  17
ESTHERVILLE    CLOUDY    28  25  88 SE6       30.13S WCI  22
FORT DODGE *   CLOUDY    28  18  64 SE5       30.16S WCI  23
MASON CITY     MOCLDY    23  15  71 SE7       30.18S WCI  15
FOREST CITY *  CLEAR     23  18  80 SE6       30.16S WCI  16
IOWA FALLS *     N/A     23  19  86 E3        30.18R
$$

IAZ007>011-017>019-026>030-037>042-050>054-066-281100-
   NORTHEAST IOWA

CITY           SKY/WX    TMP DP  RH WIND       PRES   REMARKS
CEDAR RAPIDS   MOCLDY    21  14  74 SE3       30.20R
CHARLES CITY * PTCLDY    21  16  79 SE5       30.19S WCI  15
CLINTON *      CLEAR     19  16  86 SE6       30.27R WCI  11
DECORAH *      PTCLDY    14  10  85 CALM      30.19R
DUBUQUE        CLEAR     20  12  71 SE8       30.21R WCI  10
MONTICELLO *   PTCLDY    19  18  93 CALM      30.22R
OELWEIN *      MOCLDY    23  14  68 SE6       30.20R WCI  16
WATERLOO       PTCLDY    20  16  84 E5        30.19S WCI  13
$$

IAZ064-065-067-068-078-281100-
   EAST CENTRAL IOWA

CITY           SKY/WX    TMP DP  RH WIND       PRES   REMARKS
DAVENPORT      PTCLDY    20  13  74 E7        30.24R WCI  11
IOWA CITY      PTCLDY    22  14  71 CALM      30.24R
MT. PLEASANT * MOCLDY    23  16  74 E6        30.22R WCI  16
MUSCATINE *    CLEAR     23  18  80 CALM      30.24R
QUAD CITIES    CLEAR     20  13  74 E7        30.24R WCI  11
$$

IAZ062-063-075>077-085>089-095>099-281100-
   SOUTHEAST IOWA

CITY           SKY/WX    TMP DP  RH WIND       PRES   REMARKS
BURLINGTON     MOCLDY    26  15  63 E5        30.21R WCI  20
FAIRFIELD *    CLOUDY    23  14  68 E6        30.21R WCI  16
FORT MADISON * PTCLDY    27  18  69 E5        30.22R WCI  21
KEOKUK *       PTCLDY    27  16  63 SE6       30.21R WCI  20
OSKALOOSA *    MOCLDY    25  16  68 E6        30.19S WCI  18
CENTERVILLE *  CLOUDY    28  16  59 E7        30.18R WCI  21
OTTUMWA        MOCLDY    25  14  63 E6        30.19R WCI  18
WASHINGTON *   CLOUDY    23  21  93 SE6       30.22R WCI  16
$$

ABBREVIATIONS USED IN REMARKS
   TC - TEMPERATURES IN CELSIUS
  WCI - WIND CHILL INDEX
   HX - HEAT INDEX
  VSB - VISIBILITY
$$




USA.gov is the U.S. government's official web portal to all federal, state and local government web resources and services.